Terug naar catalogus

CZ-6A DEB

ActiefPO
NORAD 61347·DEBRIS·🇨🇳 China

Gelanceerd Aug 6, 2024 vanaf Taiyuan Satellite Launch Center

Loading…

Volgende Passages (komende 24 uur)

TLE

VersSource: Space-Track

Epoch: Sep 14, 2026, 03:42 UTC

1 61347U 24140VL  26257.15455908  .00002956  00000-0  79301-3 0  9996
2 61347  89.6564 322.3361 0068489 263.3710  95.9696 14.46607528106721

Volg CZ-6A DEB in realtime met AllMySat

Download on the App Store